Regional Weather Roundup
Issued by NWS

Home | Current Version | Previous Version | Graphics & Text | Print | Product List | Glossary On
Versions: 1 2 3 4 5 6 7 8 9 10 11 12 13 14 15 16 17 18 19 20 21 22 23 24 25 26 27 28 29 30 31 32 33 34 35 36 37 38 39 40 41 42 43 44 45 46 47 48 49 50
000
ASUS43 KLOT 272102
RWRIL

ILLINOIS REGIONAL WEATHER ROUNDUP
NATIONAL WEATHER SERVICE CHICAGO/ROMEOVILLE IL
400 PM CDT WED MAY 27 2015

NOTE: "FAIR" INDICATES FEW OR NO CLOUDS BELOW 12,000 FEET WITH NO
SIGNIFICANT WEATHER AND/OR OBSTRUCTIONS TO VISIBILITY.

* THESE STATIONS ARE NOT UNDER NWS QUALITY CONTROL. THEY ALSO MAY NOT
  REPORT WEATHER SUCH AS PRECIPITATION OR FOG.

ILZ001-002-007-009-015-016-024-272200-
NORTHWEST ILLINOIS

CITY           SKY/WX    TMP DP  RH WIND       PRES   REMARKS
MOLINE         SUNNY     80  56  43 NW12      30.04R HX  80
STERLING*      MOSUNNY   79  57  47 N15       30.04S HX  80
$$

ILZ003-004-008-010-011-017-018-272200-
NORTH CENTRAL ILLINOIS

CITY           SKY/WX    TMP DP  RH WIND       PRES   REMARKS
ROCKFORD       MOSUNNY   76  55  48 N9        30.05R
$$

ILZ005-006-012>014-019>023-272200-
NORTHEAST ILLINOIS

CITY           SKY/WX    TMP DP  RH WIND       PRES   REMARKS
CHICAGO-OHARE  PTSUNNY   71  57  61 NW12      30.02R
CHICAGO-MIDWAY PTSUNNY   73  55  53 NW14G22   30.02R
AURORA         MOSUNNY   74  58  57 NW14G22   30.03R
WAUKEGAN       CLOUDY    69  58  67 VRB7      30.01R
DUPAGE AIRPORT MOSUNNY   72  56  57 NW15      30.02S
WHEELING       PTSUNNY   69  59  70 W8        30.03S
NORTHERLY ISL    N/A     70  53  54 NW12        N/A
$$

LMZ740>746-272200-
SOUTHERN LAKE MICHIGAN

STATION/POSITION SKY/WX   TEMP    WIND        PRES    VSBY  WAVE
                          AIR SEA DIR/SP/G                  HT/PER
                          (F)     (DEG/KT/KT) (MB)    (MI)  (FT/S)
SOUTHERN BUOY              49 38  250/  6/  8 1016.5R         1
HARRISON CRIB              70     280/ 14/ 17   N/A
BURNHAM HARBOR             73     300/  9/ 16   N/A
BURNS HARBOR               63     290/ 10/ 12 1016.3S
MICHIGAN CITY              63     260/ 12/ 16   N/A
MICHIGAN CITY 6N           58 52  310/  8/ 12   N/A           1/ 3
ST. JOSEPH                 57 56  200/  4/  4   N/A           1/ 3
$$

ILZ025>027-034>036-040-047-049-050-058-095>099-272200-
WEST-CENTRAL ILLINOIS

CITY           SKY/WX    TMP DP  RH WIND       PRES   REMARKS
QUINCY         MOSUNNY   79  57  46 NW8       30.07S HX  80
$$

ILZ028>032-037-038-041>044-048-051>054-059>061-272200-
CENTRAL ILLINOIS

CITY           SKY/WX    TMP DP  RH WIND       PRES   REMARKS
DECATUR        MOSUNNY   79  59  50 W13       30.06R HX  80
PEORIA         MOSUNNY   80  57  45 NW9       30.06R HX  80
SPRINGFIELD    MOSUNNY   81  60  48 NW13      30.07R HX  82
TAYLORVILLE    NOT AVBL
$$

ILZ033-039-045-046-055>057-062-063-272200-
EAST-CENTRAL ILLINOIS

CITY           SKY/WX    TMP DP  RH WIND       PRES   REMARKS
CHAMPAIGN      MOSUNNY   81  57  43 W17       30.04F HX  81
$$

ILZ079-100>102-272200-
SOUTHWEST ILLINOIS

CITY           SKY/WX    TMP DP  RH WIND       PRES   REMARKS
ALTON          PTSUNNY   81  59  47 NW9       30.07S HX  81
BELLEVILLE     MOSUNNY   81  67  61 VRB6      30.05S HX  83
CAHOKIA*       MOSUNNY   83  60  45 NW10      30.06S HX  83
$$

ILZ064>066-069>071-074>076-080>082-084>086-088>090-092>094-272200-
SOUTH-CENTRAL ILLINOIS

CITY           SKY/WX    TMP DP  RH WIND       PRES   REMARKS
CARBONDALE     PTSUNNY   80  67  64 S14       30.07F HX  82
MARION         PTSUNNY   81  68  65 MISG      30.08F HX  83
MT. VERNON     MOSUNNY   81  63  54 SW12      30.07F HX  82
$$

ILZ067-068-072-073-078-083-087-091-272200-
SOUTHEAST ILLINOIS

CITY           SKY/WX    TMP DP  RH WIND       PRES   REMARKS
LAWRENCEVILLE  PTSUNNY   82  59  45 SW16      30.06F HX  82
$$

ABBREVIATIONS USED IN REMARKS
   TC - TEMPERATURE IN CELSIUS
  WCI - WIND CHILL INDEX
   HX - HEAT INDEX
  VSB - VISIBILITY
$$




USA.gov is the U.S. government's official web portal to all federal, state and local government web resources and services.